Current weather by "City, St" or "zip code"  
 
Advertise Here

Current Conditions: Hillsville, VA

Fair


66.0 F

Last Updated on Jul 26 2021, 11:55 pm EDT
Humidity: 96%
Wind Speed: N 0.0 mph
Barometer 30.09 in
Dewpoint: 64.9 F
Visibility: 10.00 mi
Precip: --
Heat Index: NA
Wind Chill: NA
Current conditions at:

Hillsville, VA (KHLX)

Lat: 36.76667 Lon: 80.81667

Local Radar Image active severe weather and emergency alerts image image weather storm and storm spotter reports image weather observation monitoring service image
Local
Radar
Active
Alerts
Storm Reports Obs
Monitoring

Sign-up For Email & Text Message Weather Alert Notification Services


Advertise Here

Observation History for Hillsville, VA


Time Wind
(mph)
Vis
(mi)
Weather Precip (in) Temperature (F) Relative
Humidity
Wind
Chill
(F)
Heat
Index
(F)
Pressure
Air Dwpt altimeter
(in)
sea level
(mb)
Rmks
11:55 pm EDT N 0.0 10.00 Fair -- 66.0 64.9 96% NA NA 30.09 M
10:55 pm EDT NE 3.5 10.00 Fair -- 67.0 66.0 97% NA NA 30.11 M
9:55 pm EDT SW 3.5 10.00 Partly Cloudy -- 68.0 67.1 97% NA NA 30.10 M
8:55 pm EDT N 0.0 10.00 Thunderstorm Light Rain in Vicinity -- 67.0 66.2 96% NA NA 30.10 M
7:55 pm EDT N 0.0 10.00 Thunderstorm Light Rain in Vicinity 00.08 67.0 65.8 96% NA NA 30.09 M
6:55 pm EDT N 0.0 10.00 Light Rain -- 71.0 66.0 85% NA NA 30.08 M
5:55 pm EDT S 3.5 10.00 Fair -- 77.0 73.4 89% NA NA 30.07 M
4:55 pm EDT S 9.2 10.00 Fair -- 79.0 72.5 81% NA NA 30.06 M
3:55 pm EDT S 4.6 10.00 Thunderstorm in Vicinity -- 78.0 74.3 87% NA NA 30.08 M
2:55 pm EDT NE 4.6 G 10.4 2.00 Light Rain 00.25 73.0 69.3 87% NA NA 30.07 M
1:55 pm EDT N 8.1 10.00 Overcast -- 83.0 69.4 65% NA 87 30.08 M
12:55 pm EDT SW 4.6 10.00 Fair -- 83.0 66.7 59% NA 86 30.08 M
11:55 am EDT NW 9.2 10.00 Partly Cloudy -- 81.0 69.6 69% NA 84 30.11 M
10:55 am EDT NW 9.2 10.00 Partly Cloudy -- 79.0 69.8 74% NA NA 30.10 M
9:55 am EDT W 4.6 10.00 Fair -- 76.0 72.1 87% NA NA 30.11 M
8:55 am EDT W 3.5 10.00 Fair -- 72.0 70.7 96% NA NA 30.11 M
7:55 am EDT N 0.0 10.00 Mostly Cloudy -- 71.0 69.8 96% NA NA 30.10 M
6:55 am EDT N 0.0 5.00 Fog/Mist -- 69.0 68.2 96% NA NA 30.09 M
5:55 am EDT N 0.0 4.00 Fog/Mist -- 69.0 68.0 96% NA NA 30.08 M
4:55 am EDT N 0.0 7.00 Fair -- 70.0 68.4 96% NA NA 30.07 M
3:55 am EDT S 4.6 7.00 Fair -- 70.0 69.1 96% NA NA 30.07 M
2:55 am EDT SW 3.5 10.00 Fair -- 71.0 69.6 96% NA NA 30.08 M
1:55 am EDT S 5.8 10.00 Fair -- 72.0 70.5 96% NA NA 30.08 M
12:55 am EDT S 4.6 10.00 Fair -- 72.0 70.7 96% NA NA 30.09 M

Regional Weather Observation


Hillsville, VA (KHLX)

Fair
66.0 F

Dublin / New River Valley, VA (KPSK)

Fog
67.0 F

Bluefield, Mercer County Airport, WV (KBLF)

A Few Clouds
68.0 F

Virginia Tech Airport, VA (KBCB)

Partly Cloudy
68.0 F

Tazewell County Airport, VA (KJFZ)

Fog/Mist
68.0 F

Jefferson - Ashe County Airport, NC (KGEV)

Fair
65.0 F
Advertise Here

Advertise Here